When you browse on this site, cookies collect data to enhance your experience and personalize the content and advertising you see.
Visit our Privacy Policy to learn more. By continuing to use the site, you agree to this use of cookies and data.
  • în România
  • Lista ţărilor
  • Pe 7 zile
  • Temperatura apei
  • Hartă satelitară
  • Meteo pe hartă
  • Widget-uri
  • user-avatar
    Intrare

    Meteo pe oră la Gati

    Astăzi, 17 Iulie, Miercuri

    Timp Temperatura Precipitaţii Vânt Presiune Umiditate
    00:00 +16°C° 0 mm 1 m/s 740 mmHg 86%
    01:00 +16°C° 0 mm 1 m/s 740 mmHg 86%
    02:00 +16°C° 0 mm 1 m/s 740 mmHg 87%
    03:00 +16°C° 0 mm 1 m/s 740 mmHg 88%
    04:00 +16°C° 0 mm 1 m/s 740 mmHg 88%
    05:00 +16°C° 0 mm 1 m/s 740 mmHg 89%
    06:00 +16°C° 0 mm 1 m/s 740 mmHg 90%
    07:00 +16°C° 0 mm 1 m/s 740 mmHg 90%
    08:00 +16°C° 0 mm 1 m/s 740 mmHg 90%
    09:00 +16°C° 0 mm 0 m/s 740 mmHg 90%
    10:00 +16°C° 0.1 mm 0 m/s 740 mmHg 89%
    11:00 +18°C° 0.1 mm 1 m/s 740 mmHg 88%
    12:00 +18°C° 0.1 mm 1 m/s 740 mmHg 88%
    13:00 +18°C° 0.1 mm 2 m/s 739 mmHg 85%
    14:00 +19°C° 0.1 mm 2 m/s 739 mmHg 82%
    15:00 +20°C° 0.1 mm 2 m/s 738 mmHg 79%
    16:00 +20°C° 0.5 mm 2 m/s 738 mmHg 80%
    17:00 +20°C° 0.5 mm 2 m/s 738 mmHg 80%
    18:00 +20°C° 0.5 mm 2 m/s 738 mmHg 81%
    19:00 +19°C° 0.3 mm 2 m/s 738 mmHg 84%
    20:00 +17°C° 0.3 mm 2 m/s 737 mmHg 88%
    21:00 +16°C° 0.3 mm 1 m/s 737 mmHg 91%
    22:00 +16°C° 0 mm 1 m/s 737 mmHg 91%
    23:00 +15°C° 0 mm 1 m/s 737 mmHg 91%

    Mâine, 18 Iulie, Joi

    Timp Temperatura Precipitaţii Vânt Presiune Umiditate
    00:00 +15°C° 0 mm 1 m/s 737 mmHg 91%
    01:00 +15°C° 0 mm 1 m/s 737 mmHg 92%
    02:00 +14°C° 0 mm 1 m/s 737 mmHg 92%
    03:00 +14°C° 0 mm 1 m/s 737 mmHg 93%
    04:00 +14°C° 0.1 mm 2 m/s 737 mmHg 93%
    05:00 +15°C° 0.1 mm 2 m/s 737 mmHg 94%
    06:00 +15°C° 0.1 mm 2 m/s 737 mmHg 95%
    07:00 +16°C° 0.1 mm 3 m/s 737 mmHg 91%
    08:00 +18°C° 0.1 mm 3 m/s 737 mmHg 87%
    09:00 +19°C° 0.1 mm 4 m/s 737 mmHg 83%
    10:00 +20°C° 0 mm 4 m/s 737 mmHg 78%
    11:00 +21°C° 0 mm 5 m/s 737 mmHg 72%
    12:00 +22°C° 0 mm 5 m/s 737 mmHg 66%
    13:00 +22°C° 0.1 mm 5 m/s 738 mmHg 66%
    14:00 +22°C° 0.1 mm 5 m/s 738 mmHg 65%
    15:00 +22°C° 0.1 mm 6 m/s 738 mmHg 65%
    16:00 +21°C° 0.2 mm 5 m/s 738 mmHg 68%
    17:00 +21°C° 0.2 mm 5 m/s 738 mmHg 72%
    18:00 +20°C° 0.2 mm 4 m/s 738 mmHg 76%
    19:00 +19°C° 0 mm 4 m/s 738 mmHg 81%
    20:00 +17°C° 0 mm 4 m/s 738 mmHg 85%
    21:00 +16°C° 0 mm 3 m/s 738 mmHg 89%
    22:00 +14°C° 0 mm 3 m/s 739 mmHg 91%
    23:00 +14°C° 0 mm 3 m/s 739 mmHg 92%

    Poimâine, 19 Iulie, Vineri

    Timp Temperatura Precipitaţii Vânt Presiune Umiditate
    00:00 +13°C° 0 mm 3 m/s 739 mmHg 93%
    01:00 +13°C° 0 mm 3 m/s 739 mmHg 94%
    02:00 +12°C° 0 mm 3 m/s 739 mmHg 95%
    03:00 +12°C° 0 mm 3 m/s 739 mmHg 96%
    04:00 +12°C° 0 mm 4 m/s 739 mmHg 95%
    05:00 +13°C° 0 mm 4 m/s 739 mmHg 94%
    06:00 +13°C° 0 mm 4 m/s 739 mmHg 94%
    07:00 +14°C° 0.1 mm 5 m/s 739 mmHg 92%
    08:00 +14°C° 0.1 mm 5 m/s 739 mmHg 91%
    09:00 +15°C° 0.1 mm 5 m/s 740 mmHg 89%
    10:00 +16°C° 0.1 mm 5 m/s 740 mmHg 88%
    11:00 +16°C° 0.1 mm 5 m/s 740 mmHg 86%
    12:00 +17°C° 0.1 mm 6 m/s 740 mmHg 84%
    13:00 +19°C° 0.3 mm 6 m/s 740 mmHg 82%
    14:00 +18°C° 0.3 mm 7 m/s 740 mmHg 80%
    15:00 +20°C° 0.3 mm 7 m/s 740 mmHg 78%
    16:00 +20°C° 0.3 mm 7 m/s 740 mmHg 79%
    17:00 +20°C° 0.3 mm 6 m/s 740 mmHg 80%
    18:00 +20°C° 0.3 mm 6 m/s 741 mmHg 81%
    19:00 +17°C° 0 mm 5 m/s 741 mmHg 84%
    20:00 +16°C° 0 mm 5 m/s 741 mmHg 86%
    21:00 +15°C° 0 mm 4 m/s 742 mmHg 89%
    22:00 +15°C° 0 mm 4 m/s 742 mmHg 91%
    23:00 +14°C° 0 mm 4 m/s 742 mmHg 92%

    20 Iulie, Sâmbătă

    Timp Temperatura Precipitaţii Vânt Presiune Umiditate
    00:00 +14°C° 0 mm 4 m/s 742 mmHg 94%
    01:00 +14°C° 0 mm 4 m/s 742 mmHg 94%
    02:00 +13°C° 0 mm 4 m/s 742 mmHg 94%
    03:00 +13°C° 0 mm 4 m/s 742 mmHg 94%
    04:00 +13°C° 0 mm 4 m/s 743 mmHg 93%
    05:00 +13°C° 0 mm 5 m/s 743 mmHg 92%
    06:00 +13°C° 0 mm 5 m/s 743 mmHg 92%
    07:00 +15°C° 0 mm 5 m/s 743 mmHg 87%
    08:00 +16°C° 0 mm 5 m/s 743 mmHg 83%
    09:00 +19°C° 0 mm 6 m/s 744 mmHg 78%
    10:00 +20°C° 0.1 mm 6 m/s 744 mmHg 75%
    11:00 +21°C° 0.1 mm 6 m/s 744 mmHg 72%
    12:00 +22°C° 0.1 mm 6 m/s 744 mmHg 69%
    13:00 +22°C° 0.3 mm 6 m/s 744 mmHg 68%
    14:00 +22°C° 0.3 mm 6 m/s 744 mmHg 67%
    15:00 +22°C° 0.3 mm 6 m/s 744 mmHg 66%
    16:00 +22°C° 0.1 mm 5 m/s 744 mmHg 68%
    17:00 +22°C° 0.1 mm 5 m/s 744 mmHg 71%
    18:00 +22°C° 0.1 mm 4 m/s 744 mmHg 73%
    19:00 +20°C° 0 mm 4 m/s 745 mmHg 76%
    20:00 +18°C° 0 mm 3 m/s 745 mmHg 80%
    21:00 +17°C° 0 mm 3 m/s 745 mmHg 84%
    22:00 +16°C° 0 mm 3 m/s 745 mmHg 85%
    23:00 +16°C° 0 mm 3 m/s 745 mmHg 86%

    21 Iulie, Duminică

    Timp Temperatura Precipitaţii Vânt Presiune Umiditate
    00:00 +14°C° 0 mm 3 m/s 745 mmHg 87%
    01:00 +14°C° 0 mm 3 m/s 745 mmHg 89%
    02:00 +13°C° 0 mm 3 m/s 745 mmHg 91%
    03:00 +13°C° 0 mm 3 m/s 745 mmHg 93%
    04:00 +13°C° 0 mm 3 m/s 745 mmHg 93%
    05:00 +14°C° 0 mm 3 m/s 745 mmHg 92%
    06:00 +14°C° 0 mm 4 m/s 745 mmHg 92%
    07:00 +15°C° 0 mm 4 m/s 745 mmHg 88%
    08:00 +18°C° 0 mm 4 m/s 745 mmHg 84%
    09:00 +19°C° 0 mm 4 m/s 745 mmHg 80%
    10:00 +20°C° 0.1 mm 4 m/s 745 mmHg 78%
    11:00 +21°C° 0.1 mm 4 m/s 745 mmHg 75%
    12:00 +22°C° 0.1 mm 4 m/s 745 mmHg 72%
    13:00 +23°C° 0.3 mm 4 m/s 745 mmHg 71%
    14:00 +23°C° 0.3 mm 4 m/s 745 mmHg 69%
    15:00 +23°C° 0.3 mm 4 m/s 745 mmHg 67%
    16:00 +23°C° 0.8 mm 4 m/s 745 mmHg 71%
    17:00 +22°C° 0.8 mm 4 m/s 745 mmHg 74%
    18:00 +22°C° 0.8 mm 4 m/s 745 mmHg 78%
    19:00 +20°C° 0.2 mm 3 m/s 745 mmHg 81%
    20:00 +19°C° 0.2 mm 3 m/s 745 mmHg 84%
    21:00 +18°C° 0.2 mm 2 m/s 745 mmHg 88%
    22:00 +17°C° 0 mm 2 m/s 745 mmHg 89%
    23:00 +16°C° 0 mm 2 m/s 745 mmHg 90%

    22 Iulie, Luni

    Timp Temperatura Precipitaţii Vânt Presiune Umiditate
    00:00 +16°C° 0 mm 2 m/s 745 mmHg 91%
    01:00 +15°C° 0.2 mm 2 m/s 745 mmHg 92%
    02:00 +15°C° 0.2 mm 2 m/s 745 mmHg 93%
    03:00 +15°C° 0.2 mm 2 m/s 745 mmHg 94%
    04:00 +15°C° 0 mm 2 m/s 745 mmHg 94%
    05:00 +15°C° 0 mm 2 m/s 745 mmHg 94%
    06:00 +15°C° 0 mm 2 m/s 745 mmHg 94%
    07:00 +17°C° 0 mm 2 m/s 745 mmHg 90%
    08:00 +18°C° 0 mm 2 m/s 746 mmHg 85%
    09:00 +20°C° 0 mm 2 m/s 746 mmHg 80%
    10:00 +21°C° 0.5 mm 2 m/s 746 mmHg 76%
    11:00 +21°C° 0.5 mm 3 m/s 746 mmHg 71%
    12:00 +22°C° 0.5 mm 3 m/s 746 mmHg 67%
    13:00 +24°C° 0.2 mm 3 m/s 745 mmHg 65%
    14:00 +24°C° 0.2 mm 3 m/s 745 mmHg 64%
    15:00 +24°C° 0.2 mm 3 m/s 745 mmHg 62%
    16:00 +24°C° 0.6 mm 3 m/s 745 mmHg 67%
    17:00 +22°C° 0.6 mm 3 m/s 745 mmHg 72%
    18:00 +22°C° 0.6 mm 3 m/s 745 mmHg 76%
    19:00 +20°C° 0.1 mm 3 m/s 745 mmHg 79%
    20:00 +19°C° 0.1 mm 2 m/s 745 mmHg 82%
    21:00 +17°C° 0.1 mm 2 m/s 745 mmHg 86%
    22:00 +16°C° 0 mm 2 m/s 745 mmHg 86%
    23:00 +14°C° 0 mm 3 m/s 745 mmHg 87%
    Arată mai mult